Location: Elbart
(49.6135°N, 11.9134°E)
Time: 16:44:14
(UTC+00:00)

CARTOSAT-1 - Pass Details

Date: 09 April 2020
Orbit: 616 x 619 km, 97.8° (Epoch: 03 June)

Event Time Altitude Azimuth Distance (km) Brightness Sun altitude
Exits shadow 20:39:35 78° 91° (E) 639 3.4 -23.3°
Maximum altitude 20:39:40 79° 76° (ENE) 638 3.4 -23.3°
Drops below altitude 10° 20:44:01 10° 349° (NNW) 1,998 7.0 -23.8°
Sets 20:46:13 0° 348° (NNW) 2,909 8.0 -24.0°
